Time,TemperatureF,DewpointF,PressureIn,WindDirection,WindDirectionDegrees,WindSpeedMPH,WindSpeedGustMPH,Humidity,HourlyPrecipIn,Conditions,Clouds,dailyrainin,SoftwareType,DateUTC
2013-06-10 00:02:00,54.0,-99.9,30.21,South,182,10.0,13.0,-999,-99.99,,,-99.99,,2013-06-10 08:02:00,
2013-06-10 00:12:00,54.0,-99.9,30.21,South,177,11.0,13.0,-999,-99.99,,,-99.99,,2013-06-10 08:12:00,
2013-06-10 00:22:00,54.0,-99.9,30.21,South,177,12.0,15.0,-999,-99.99,,,-99.99,,2013-06-10 08:22:00,
2013-06-10 00:32:00,54.0,-99.9,30.21,South,177,11.0,13.0,-999,-99.99,,,-99.99,,2013-06-10 08:32:00,
2013-06-10 00:42:00,54.0,-99.9,30.21,South,180,12.0,15.0,-999,-99.99,,,-99.99,,2013-06-10 08:42:00,
2013-06-10 00:52:00,54.0,-99.9,30.21,South,182,11.0,16.0,-999,-99.99,,,-99.99,,2013-06-10 08:52:00,
2013-06-10 01:02:00,54.0,-99.9,30.21,South,186,11.0,15.0,-999,-99.99,,,-99.99,,2013-06-10 09:02:00,
2013-06-10 01:12:00,54.0,-99.9,30.22,South,185,9.0,13.0,-999,-99.99,,,-99.99,,2013-06-10 09:12:00,
2013-06-10 01:22:00,54.0,-99.9,30.22,South,187,10.0,13.0,-999,-99.99,,,-99.99,,2013-06-10 09:22:00,
2013-06-10 01:32:00,53.0,-99.9,30.22,South,184,9.0,11.0,-999,-99.99,,,-99.99,,2013-06-10 09:32:00,
2013-06-10 01:43:00,54.0,-99.9,30.22,South,186,10.0,14.0,-999,-99.99,,,-99.99,,2013-06-10 09:43:00,
2013-06-10 01:54:00,53.0,-99.9,30.22,South,185,9.0,13.0,-999,-99.99,,,-99.99,,2013-06-10 09:54:00,
2013-06-10 02:03:00,53.0,-99.9,30.22,South,190,10.0,14.0,-999,-99.99,,,-99.99,,2013-06-10 10:03:00,
2013-06-10 02:13:00,53.0,-99.9,30.22,South,185,10.0,12.0,-999,-99.99,,,-99.99,,2013-06-10 10:13:00,
2013-06-10 02:23:00,53.0,-99.9,30.22,South,186,10.0,13.0,-999,-99.99,,,-99.99,,2013-06-10 10:23:00,
2013-06-10 02:33:00,52.0,-99.9,30.22,South,185,9.0,13.0,-999,-99.99,,,-99.99,,2013-06-10 10:33:00,
2013-06-10 02:42:00,53.0,-99.9,30.22,SSW,194,11.0,14.0,-999,-99.99,,,-99.99,,2013-06-10 10:42:00,
2013-06-10 02:52:00,53.0,-99.9,30.23,South,188,7.0,14.0,-999,-99.99,,,-99.99,,2013-06-10 10:52:00,
2013-06-10 03:03:00,52.0,-99.9,30.22,South,186,8.0,11.0,-999,-99.99,,,-99.99,,2013-06-10 11:03:00,
2013-06-10 03:12:00,52.0,-99.9,30.23,South,185,7.0,13.0,-999,-99.99,,,-99.99,,2013-06-10 11:12:00,
2013-06-10 03:22:00,52.0,-99.9,30.23,South,188,9.0,13.0,-999,-99.99,,,-99.99,,2013-06-10 11:22:00,
2013-06-10 03:32:00,52.0,-99.9,30.23,South,187,8.0,12.0,-999,-99.99,,,-99.99,,2013-06-10 11:32:00,
2013-06-10 03:42:00,51.0,-99.9,30.23,South,186,8.0,12.0,-999,-99.99,,,-99.99,,2013-06-10 11:42:00,
2013-06-10 03:52:00,51.0,-99.9,30.23,South,189,9.0,11.0,-999,-99.99,,,-99.99,,2013-06-10 11:52:00,
2013-06-10 04:02:00,51.0,-99.9,30.23,South,187,7.0,11.0,-999,-99.99,,,-99.99,,2013-06-10 12:02:00,
2013-06-10 04:12:00,51.0,-99.9,30.23,SSW,193,10.0,14.0,-999,-99.99,,,-99.99,,2013-06-10 12:12:00,
2013-06-10 04:22:00,51.0,-99.9,30.23,South,191,9.0,12.0,-999,-99.99,,,-99.99,,2013-06-10 12:22:00,
2013-06-10 04:32:00,51.0,-99.9,30.24,SSW,195,10.0,12.0,-999,-99.99,,,-99.99,,2013-06-10 12:32:00,
2013-06-10 04:42:00,51.0,-99.9,30.24,SSW,197,9.0,13.0,-999,-99.99,,,-99.99,,2013-06-10 12:42:00,
2013-06-10 04:52:00,50.0,-99.9,30.24,South,189,7.0,11.0,-999,-99.99,,,-99.99,,2013-06-10 12:52:00,
2013-06-10 05:02:00,50.0,-99.9,30.24,South,188,6.0,8.0,-999,-99.99,,,-99.99,,2013-06-10 13:02:00,
2013-06-10 05:12:00,50.0,-99.9,30.24,South,186,5.0,8.0,-999,-99.99,,,-99.99,,2013-06-10 13:12:00,
2013-06-10 05:22:00,50.0,-99.9,30.24,South,183,6.0,7.0,-999,-99.99,,,-99.99,,2013-06-10 13:22:00,
2013-06-10 05:32:00,50.0,-99.9,30.24,South,182,6.0,8.0,-999,-99.99,,,-99.99,,2013-06-10 13:32:00,
2013-06-10 05:43:00,49.0,-99.9,30.24,South,190,6.0,9.0,-999,-99.99,,,-99.99,,2013-06-10 13:43:00,
2013-06-10 05:52:00,49.0,-99.9,30.24,South,187,6.0,9.0,-999,-99.99,,,-99.99,,2013-06-10 13:52:00,
2013-06-10 06:02:00,49.0,-99.9,30.24,South,191,7.0,10.0,-999,-99.99,,,-99.99,,2013-06-10 14:02:00,
2013-06-10 06:12:00,49.0,-99.9,30.24,South,190,6.0,11.0,-999,-99.99,,,-99.99,,2013-06-10 14:12:00,
2013-06-10 06:22:00,49.0,-99.9,30.24,SSW,193,8.0,10.0,-999,-99.99,,,-99.99,,2013-06-10 14:22:00,
2013-06-10 06:32:00,49.0,-99.9,30.24,South,189,6.0,10.0,-999,-99.99,,,-99.99,,2013-06-10 14:32:00,
2013-06-10 06:42:00,49.0,-99.9,30.24,South,186,7.0,10.0,-999,-99.99,,,-99.99,,2013-06-10 14:42:00,
2013-06-10 06:52:00,49.0,-99.9,30.24,SSW,192,9.0,11.0,-999,-99.99,,,-99.99,,2013-06-10 14:52:00,
2013-06-10 07:03:00,49.0,-99.9,30.24,South,189,7.0,11.0,-999,-99.99,,,-99.99,,2013-06-10 15:03:00,
2013-06-10 07:13:00,49.0,-99.9,30.24,South,187,7.0,10.0,-999,-99.99,,,-99.99,,2013-06-10 15:13:00,
2013-06-10 07:22:00,49.0,-99.9,30.24,South,189,6.0,10.0,-999,-99.99,,,-99.99,,2013-06-10 15:22:00,
2013-06-10 07:33:00,49.0,-99.9,30.24,South,190,8.0,11.0,-999,-99.99,,,-99.99,,2013-06-10 15:33:00,
2013-06-10 07:43:00,49.0,-99.9,30.24,South,189,8.0,11.0,-999,-99.99,,,-99.99,,2013-06-10 15:43:00,
2013-06-10 07:53:00,49.0,-99.9,30.24,South,188,9.0,13.0,-999,-99.99,,,-99.99,,2013-06-10 15:53:00,
2013-06-10 08:03:00,49.0,-99.9,30.25,South,190,7.0,10.0,-999,-99.99,,,-99.99,,2013-06-10 16:03:00,
2013-06-10 08:13:00,49.0,-99.9,30.25,South,187,7.0,11.0,-999,-99.99,,,-99.99,,2013-06-10 16:13:00,
2013-06-10 08:23:00,49.0,-99.9,30.25,South,187,6.0,10.0,-999,-99.99,,,-99.99,,2013-06-10 16:23:00,
2013-06-10 08:33:00,49.0,-99.9,30.25,South,190,7.0,11.0,-999,-99.99,,,-99.99,,2013-06-10 16:33:00,
2013-06-10 08:43:00,49.0,-99.9,30.25,South,188,6.0,10.0,-999,-99.99,,,-99.99,,2013-06-10 16:43:00,
2013-06-10 08:53:00,49.0,-99.9,30.25,South,177,8.0,10.0,-999,-99.99,,,-99.99,,2013-06-10 16:53:00,
2013-06-10 09:03:00,49.0,-99.9,30.25,South,183,8.0,9.0,-999,-99.99,,,-99.99,,2013-06-10 17:03:00,
2013-06-10 09:14:00,49.0,-99.9,30.25,South,186,7.0,9.0,-999,-99.99,,,-99.99,,2013-06-10 17:14:00,
2013-06-10 09:27:00,50.0,-99.9,30.25,South,183,6.0,9.0,-999,-99.99,,,-99.99,,2013-06-10 17:27:00,
2013-06-10 09:38:00,50.0,-99.9,30.25,South,180,8.0,10.0,-999,-99.99,,,-99.99,,2013-06-10 17:38:00,
2013-06-10 09:48:00,50.0,-99.9,30.25,South,177,7.0,10.0,-999,-99.99,,,-99.99,,2013-06-10 17:48:00,
2013-06-10 09:58:00,50.0,-99.9,30.26,South,184,6.0,8.0,-999,-99.99,,,-99.99,,2013-06-10 17:58:00,
2013-06-10 10:08:00,50.0,-99.9,30.26,South,184,6.0,9.0,-999,-99.99,,,-99.99,,2013-06-10 18:08:00,
2013-06-10 10:14:00,50.0,-99.9,30.26,South,190,5.0,7.0,-999,-99.99,,,-99.99,,2013-06-10 18:14:00,
2013-06-10 10:25:00,50.0,-99.9,30.26,South,187,6.0,9.0,-999,-99.99,,,-99.99,,2013-06-10 18:25:00,
2013-06-10 10:35:00,50.0,-99.9,30.26,South,186,7.0,9.0,-999,-99.99,,,-99.99,,2013-06-10 18:35:00,
2013-06-10 10:48:00,50.0,-99.9,30.26,South,180,7.0,9.0,-999,-99.99,,,-99.99,,2013-06-10 18:48:00,
2013-06-10 10:55:00,50.0,-99.9,30.26,South,189,6.0,9.0,-999,-99.99,,,-99.99,,2013-06-10 18:55:00,
2013-06-10 11:03:00,50.0,-99.9,30.26,South,187,7.0,9.0,-999,-99.99,,,-99.99,,2013-06-10 19:03:00,
2013-06-10 11:13:00,50.0,-99.9,30.26,South,189,7.0,9.0,-999,-99.99,,,-99.99,,2013-06-10 19:13:00,
2013-06-10 11:23:00,50.0,-99.9,30.26,South,187,8.0,10.0,-999,-99.99,,,-99.99,,2013-06-10 19:23:00,
2013-06-10 11:33:00,50.0,-99.9,30.26,SSW,194,9.0,10.0,-999,-99.99,,,-99.99,,2013-06-10 19:33:00,
2013-06-10 11:43:00,50.0,-99.9,30.25,South,187,6.0,10.0,-999,-99.99,,,-99.99,,2013-06-10 19:43:00,
2013-06-10 11:53:00,50.0,-99.9,30.25,SSW,200,7.0,9.0,-999,-99.99,,,-99.99,,2013-06-10 19:53:00,
2013-06-10 12:03:00,51.0,-99.9,30.25,South,189,6.0,9.0,-999,-99.99,,,-99.99,,2013-06-10 20:03:00,
2013-06-10 12:13:00,50.0,-99.9,30.25,South,188,7.0,9.0,-999,-99.99,,,-99.99,,2013-06-10 20:13:00,
2013-06-10 12:23:00,50.0,-99.9,30.25,South,186,8.0,9.0,-999,-99.99,,,-99.99,,2013-06-10 20:23:00,
2013-06-10 12:32:00,51.0,-99.9,30.25,South,188,6.0,9.0,-999,-99.99,,,-99.99,,2013-06-10 20:32:00,
2013-06-10 12:43:00,51.0,-99.9,30.25,South,189,7.0,9.0,-999,-99.99,,,-99.99,,2013-06-10 20:43:00,
2013-06-10 12:53:00,51.0,-99.9,30.25,SSW,192,6.0,9.0,-999,-99.99,,,-99.99,,2013-06-10 20:53:00,
2013-06-10 13:02:00,51.0,-99.9,30.24,South,186,8.0,10.0,-999,-99.99,,,-99.99,,2013-06-10 21:02:00,
2013-06-10 13:13:00,51.0,-99.9,30.24,South,184,5.0,7.0,-999,-99.99,,,-99.99,,2013-06-10 21:13:00,
2013-06-10 13:23:00,52.0,-99.9,30.24,South,180,5.0,6.0,-999,-99.99,,,-99.99,,2013-06-10 21:23:00,
2013-06-10 13:34:00,52.0,-99.9,30.24,South,187,5.0,7.0,-999,-99.99,,,-99.99,,2013-06-10 21:34:00,
2013-06-10 13:43:00,52.0,-99.9,30.24,SSW,192,5.0,6.0,-999,-99.99,,,-99.99,,2013-06-10 21:43:00,
2013-06-10 13:53:00,51.0,-99.9,30.24,SSW,192,6.0,8.0,-999,-99.99,,,-99.99,,2013-06-10 21:53:00,
2013-06-10 14:03:00,53.0,-99.9,30.23,South,191,6.0,7.0,-999,-99.99,,,-99.99,,2013-06-10 22:03:00,
2013-06-10 14:13:00,51.0,-99.9,30.23,SSW,201,7.0,8.0,-999,-99.99,,,-99.99,,2013-06-10 22:13:00,
2013-06-10 14:23:00,52.0,-99.9,30.23,South,190,5.0,8.0,-999,-99.99,,,-99.99,,2013-06-10 22:23:00,
2013-06-10 14:33:00,53.0,-99.9,30.23,South,190,5.0,7.0,-999,-99.99,,,-99.99,,2013-06-10 22:33:00,
2013-06-10 14:42:00,52.0,-99.9,30.22,South,189,6.0,7.0,-999,-99.99,,,-99.99,,2013-06-10 22:42:00,
2013-06-10 14:52:00,52.0,-99.9,30.22,South,188,5.0,7.0,-999,-99.99,,,-99.99,,2013-06-10 22:52:00,
2013-06-10 15:03:00,52.0,-99.9,30.22,South,185,6.0,7.0,-999,-99.99,,,-99.99,,2013-06-10 23:03:00,
2013-06-10 15:12:00,51.0,-99.9,30.22,South,185,7.0,8.0,-999,-99.99,,,-99.99,,2013-06-10 23:12:00,
2013-06-10 15:22:00,52.0,-99.9,30.22,South,178,8.0,9.0,-999,-99.99,,,-99.99,,2013-06-10 23:22:00,
2013-06-10 15:32:00,51.0,-99.9,30.21,South,175,9.0,11.0,-999,-99.99,,,-99.99,,2013-06-10 23:32:00,
2013-06-10 15:42:00,51.0,-99.9,30.21,South,176,10.0,12.0,-999,-99.99,,,-99.99,,2013-06-10 23:42:00,
2013-06-10 15:52:00,51.0,-99.9,30.21,South,177,10.0,12.0,-999,-99.99,,,-99.99,,2013-06-10 23:52:00,
2013-06-10 16:02:00,51.0,-99.9,30.21,South,180,10.0,11.0,-999,-99.99,,,-99.99,,2013-06-11 00:02:00,
2013-06-10 16:13:00,51.0,-99.9,30.21,South,181,9.0,11.0,-999,-99.99,,,-99.99,,2013-06-11 00:13:00,
2013-06-10 16:22:00,51.0,-99.9,30.21,South,178,10.0,11.0,-999,-99.99,,,-99.99,,2013-06-11 00:22:00,
2013-06-10 16:32:00,51.0,-99.9,30.20,South,184,11.0,12.0,-999,-99.99,,,-99.99,,2013-06-11 00:32:00,
2013-06-10 16:43:00,51.0,-99.9,30.20,South,175,11.0,12.0,-999,-99.99,,,-99.99,,2013-06-11 00:43:00,
2013-06-10 16:52:00,52.0,-99.9,30.20,South,173,11.0,13.0,-999,-99.99,,,-99.99,,2013-06-11 00:52:00,
2013-06-10 17:02:00,51.0,-99.9,30.19,South,174,13.0,14.0,-999,-99.99,,,-99.99,,2013-06-11 01:02:00,
2013-06-10 17:12:00,51.0,-99.9,30.19,South,173,13.0,15.0,-999,-99.99,,,-99.99,,2013-06-11 01:12:00,
2013-06-10 17:22:00,50.0,-99.9,30.19,South,182,13.0,15.0,-999,-99.99,,,-99.99,,2013-06-11 01:22:00,
2013-06-10 17:33:00,51.0,-99.9,30.19,South,174,13.0,15.0,-999,-99.99,,,-99.99,,2013-06-11 01:33:00,
2013-06-10 17:42:00,50.0,-99.9,30.19,South,182,14.0,15.0,-999,-99.99,,,-99.99,,2013-06-11 01:42:00,
2013-06-10 17:53:00,51.0,-99.9,30.19,South,171,12.0,14.0,-999,-99.99,,,-99.99,,2013-06-11 01:53:00,
2013-06-10 18:03:00,51.0,-99.9,30.19,South,177,13.0,16.0,-999,-99.99,,,-99.99,,2013-06-11 02:03:00,
2013-06-10 18:12:00,51.0,-99.9,30.19,South,177,13.0,15.0,-999,-99.99,,,-99.99,,2013-06-11 02:12:00,
2013-06-10 18:22:00,52.0,-99.9,30.18,South,176,13.0,15.0,-999,-99.99,,,-99.99,,2013-06-11 02:22:00,
2013-06-10 18:32:00,52.0,-99.9,30.18,South,185,13.0,17.0,-999,-99.99,,,-99.99,,2013-06-11 02:32:00,
2013-06-10 18:43:00,52.0,-99.9,30.18,South,174,11.0,12.0,-999,-99.99,,,-99.99,,2013-06-11 02:43:00,
2013-06-10 18:52:00,52.0,-99.9,30.17,South,175,12.0,13.0,-999,-99.99,,,-99.99,,2013-06-11 02:52:00,
2013-06-10 19:03:00,51.0,-99.9,30.17,South,177,13.0,14.0,-999,-99.99,,,-99.99,,2013-06-11 03:03:00,
2013-06-10 19:13:00,52.0,-99.9,30.17,South,175,12.0,14.0,-999,-99.99,,,-99.99,,2013-06-11 03:13:00,
2013-06-10 19:22:00,52.0,-99.9,30.17,South,175,11.0,13.0,-999,-99.99,,,-99.99,,2013-06-11 03:22:00,
2013-06-10 19:33:00,53.0,-99.9,30.16,South,177,10.0,14.0,-999,-99.99,,,-99.99,,2013-06-11 03:33:00,
2013-06-10 19:43:00,53.0,-99.9,30.16,South,174,9.0,13.0,-999,-99.99,,,-99.99,,2013-06-11 03:43:00,
2013-06-10 19:53:00,53.0,-99.9,30.16,South,189,11.0,14.0,-999,-99.99,,,-99.99,,2013-06-11 03:53:00,
2013-06-10 20:03:00,53.0,-99.9,30.15,South,172,9.0,12.0,-999,-99.99,,,-99.99,,2013-06-11 04:03:00,
2013-06-10 20:13:00,53.0,-99.9,30.15,South,174,11.0,12.0,-999,-99.99,,,-99.99,,2013-06-11 04:13:00,
2013-06-10 20:23:00,53.0,-99.9,30.15,South,179,11.0,13.0,-999,-99.99,,,-99.99,,2013-06-11 04:23:00,
2013-06-10 20:34:00,53.0,-99.9,30.15,SSE,167,12.0,13.0,-999,-99.99,,,-99.99,,2013-06-11 04:34:00,
2013-06-10 20:43:00,55.0,-99.9,30.14,SSW,192,14.0,17.0,-999,-99.99,,,-99.99,,2013-06-11 04:43:00,
2013-06-10 20:53:00,55.0,-99.9,30.14,South,188,13.0,16.0,-999,-99.99,,,-99.99,,2013-06-11 04:53:00,
2013-06-10 21:02:00,55.0,-99.9,30.14,South,177,12.0,15.0,-999,-99.99,,,-99.99,,2013-06-11 05:02:00,
2013-06-10 21:12:00,55.0,-99.9,30.14,South,185,12.0,15.0,-999,-99.99,,,-99.99,,2013-06-11 05:12:00,
2013-06-10 21:22:00,54.0,-99.9,30.14,South,188,12.0,14.0,-999,-99.99,,,-99.99,,2013-06-11 05:22:00,
2013-06-10 21:32:00,54.0,-99.9,30.14,South,182,12.0,15.0,-999,-99.99,,,-99.99,,2013-06-11 05:32:00,
2013-06-10 21:42:00,54.0,-99.9,30.14,South,179,10.0,13.0,-999,-99.99,,,-99.99,,2013-06-11 05:42:00,
2013-06-10 21:52:00,54.0,-99.9,30.14,South,183,9.0,14.0,-999,-99.99,,,-99.99,,2013-06-11 05:52:00,
2013-06-10 22:02:00,54.0,-99.9,30.13,South,179,10.0,13.0,-999,-99.99,,,-99.99,,2013-06-11 06:02:00,
2013-06-10 22:12:00,54.0,-99.9,30.13,South,177,8.0,12.0,-999,-99.99,,,-99.99,,2013-06-11 06:12:00,
2013-06-10 22:22:00,54.0,-99.9,30.13,South,179,8.0,10.0,-999,-99.99,,,-99.99,,2013-06-11 06:22:00,
2013-06-10 22:32:00,54.0,-99.9,30.13,SSW,201,11.0,14.0,-999,-99.99,,,-99.99,,2013-06-11 06:32:00,
2013-06-10 22:42:00,53.0,-99.9,30.13,South,191,11.0,14.0,-999,-99.99,,,-99.99,,2013-06-11 06:42:00,
2013-06-10 22:52:00,53.0,-99.9,30.13,South,177,8.0,11.0,-999,-99.99,,,-99.99,,2013-06-11 06:52:00,
2013-06-10 23:02:00,54.0,-99.9,30.13,SSW,197,10.0,17.0,-999,-99.99,,,-99.99,,2013-06-11 07:02:00,
2013-06-10 23:13:00,53.0,-99.9,30.14,South,179,9.0,11.0,-999,-99.99,,,-99.99,,2013-06-11 07:13:00,
2013-06-10 23:22:00,53.0,-99.9,30.14,South,187,9.0,11.0,-999,-99.99,,,-99.99,,2013-06-11 07:22:00,
2013-06-10 23:32:00,54.0,-99.9,30.15,NE,42,4.0,9.0,-999,-99.99,,,-99.99,,2013-06-11 07:32:00,
2013-06-10 23:42:00,54.0,-99.9,30.15,SE,127,3.0,7.0,-999,-99.99,,,-99.99,,2013-06-11 07:42:00,
2013-06-10 23:52:00,54.0,-99.9,30.15,South,174,6.0,9.0,-999,-99.99,,,-99.99,,2013-06-11 07:52:00,